[TLELIST] Archives

 

[list_settings.list_name] Current TLEs

January 25th 2014 PST

HST 1 20580U 90037B 14025.10114655 .00002198 00000-0 14095-3 0 4233 2 20580 028.4694 257.1922 0002910 196.0597 296.4577 15.04558258103149 ISS (ZARYA) 1 25544U 98067A 14025.27173318 .00012220 00000-0 22232-3 0 5430 2 25544 051.6493 087.9801 0003820 072.5281 004.0846 15.49925288869155 CXO 1 25867U 99040B 14027.72806149 .00000177 00000-0 00000+0 0 9782 2 25867 076.5213 327.1638 8309830 275.7043 000.5316 00.37800783 11387 ____________________________________________________________________ These 2-Line ...Continue Reading

[list_settings.list_name] Current TLEs

January 24th 2014 PST

HST 1 20580U 90037B 14024.08173020 .00002298 00000-0 14789-3 0 4220 2 20580 028.4711 263.8932 0003412 186.2019 173.8459 15.04554018102980 ISS (ZARYA) 1 25544U 98067A 14024.50341103 .00012209 00000-0 22228-3 0 5379 2 25544 051.6493 091.7856 0003732 068.4074 038.3727 15.49906082869030 CXO 1 25867U 99040B 14022.48379904 .00000000 00000-0 10000-3 0 9773 2 25867 076.4910 327.4187 8309091 275.7543 006.8105 00.37815396 11376 ____________________________________________________________________ These 2-Line ...Continue Reading

[list_settings.list_name] Current TLEs

January 23rd 2014 PST

HST 1 20580U 90037B 14022.11323434 .00002070 00000-0 13206-3 0 4218 2 20580 028.4694 276.8013 0002944 163.9132 312.9806 15.04545523102692 ISS (ZARYA) 1 25544U 98067A 14023.42103009 .00010926 00000-0 20002-3 0 5226 2 25544 051.6495 097.1484 0003708 065.1744 118.3362 15.49873412868864 CXO 1 25867U 99040B 14025.08304606 .00000055 00000-0 00000+0 0 9864 2 25867 076.5140 327.2921 8312672 275.7060 000.5970 00.37801569 11377 ____________________________________________________________________ These 2-Line ...Continue Reading

[list_settings.list_name] Current TLEs

January 22nd 2014 PST

HST 1 20580U 90037B 14022.11323434 .00002070 00000-0 13206-3 0 4218 2 20580 028.4694 276.8013 0002944 163.9132 312.9806 15.04545523102692 ISS (ZARYA) 1 25544U 98067A 14022.45306713 .00011696 00000-0 21371-3 0 5174 2 25544 051.6485 101.9430 0003676 062.9204 116.2628 15.49851135868712 CXO 1 25867U 99040B 14022.43852842 .00000007 00000-0 00000+0 0 9856 2 25867 076.5045 327.4355 8314721 275.7140 000.6941 00.37802723 11361 ____________________________________________________________________ These 2-Line ...Continue Reading

[list_settings.list_name] Current TLEs

January 21st 2014 PST

HST 1 20580U 90037B 14020.84374699 .00001749 00000-0 10977-3 0 4208 2 20580 028.4697 285.1350 0002991 149.5474 277.7833 15.04540574102490 ISS (ZARYA) 1 25544U 98067A 14021.26996815 .00013801 00000-0 25088-3 0 5102 2 25544 051.6488 107.8034 0003858 058.3374 355.4936 15.49825920868531 CXO 1 25867U 99040B 14022.43852842 .00000007 00000-0 00000+0 0 9856 2 25867 076.5045 327.4355 8314721 275.7140 000.6941 00.37802723 11361 ____________________________________________________________________ These 2-Line ...Continue Reading

[list_settings.list_name] Current TLEs

January 20th 2014 PST

HST 1 20580U 90037B 14019.20156808 .00001836 00000-0 11584-3 0 4196 2 20580 028.4700 295.9148 0003068 133.4275 021.7627 15.04534548102252 ISS (ZARYA) 1 25544U 98067A 14020.43962693 .00009546 00000-0 17623-3 0 5047 2 25544 051.6507 111.9198 0003544 053.5192 044.5030 15.49804455868404 CXO 1 25867U 99040B 14022.43852842 .00000007 00000-0 00000+0 0 9856 2 25867 076.5045 327.4355 8314721 275.7140 000.6941 00.37802723 11361 ____________________________________________________________________ These 2-Line ...Continue Reading

[list_settings.list_name] Current TLEs

January 19th 2014 PST

HST 1 20580U 90037B 14019.20156808 .00001836 00000-0 11584-3 0 4196 2 20580 028.4700 295.9148 0003068 133.4275 021.7627 15.04534548102252 ISS (ZARYA) 1 25544U 98067A 14019.48644676 -.00103426 00000-0 -18425-2 0 4973 2 25544 051.6496 116.6365 0003286 056.2564 120.2169 15.49777875868258 CXO 1 25867U 99040B 14019.79493125 .00000003 00000-0 00000+0 0 9841 2 25867 076.4939 327.5831 8315370 275.7367 000.8519 00.37799115 11356 ____________________________________________________________________ These 2-Line ...Continue Reading

[list_settings.list_name] Current TLEs

January 18th 2014 PST

HST 1 20580U 90037B 14017.85649259 .00002290 00000-0 14749-3 0 4182 2 20580 028.4708 304.7498 0003217 118.3208 297.1388 15.04529354102040 ISS (ZARYA) 1 25544U 98067A 14018.43871882 -.00014866 00000-0 -25533-3 0 4909 2 25544 051.6470 121.8252 0003570 037.6980 049.4280 15.49738934868095 CXO 1 25867U 99040B 14019.79493125 .00000003 00000-0 00000+0 0 9841 2 25867 076.4939 327.5831 8315370 275.7367 000.8519 00.37799115 11356 ____________________________________________________________________ These 2-Line ...Continue Reading

[list_settings.list_name] Current TLEs

January 17th 2014 PST

HST 1 20580U 90037B 14016.27820477 .00002717 00000-0 17728-3 0 4173 2 20580 028.4712 315.1102 0003272 101.8188 028.2971 15.04523215101813 ISS (ZARYA) 1 25544U 98067A 14017.27923134 .00010285 00000-0 18489-3 0 4819 2 25544 051.6508 127.5632 0006210 038.0502 054.0506 15.50461168867918 CXO 1 25867U 99040B 14019.79493125 .00000003 00000-0 00000+0 0 9841 2 25867 076.4939 327.5831 8315370 275.7367 000.8519 00.37799115 11356 ____________________________________________________________________ These 2-Line ...Continue Reading

[list_settings.list_name] Current TLEs

January 16th 2014 PST

HST 1 20580U 90037B 14015.21829808 .00002829 00000-0 18508-3 0 4163 2 20580 028.4715 322.0674 0003314 090.8089 047.2265 15.04520031101653 ISS (ZARYA) 1 25544U 98067A 14016.44582537 .00010845 00000-0 19462-3 0 4741 2 25544 051.6485 131.6941 0006028 035.1859 082.0869 15.50445323867784 CXO 1 25867U 99040B 14 14.54860074 .00000000 00000-0 10000-3 0 9763 2 25867 076.4656 327.7594 8323707 275.8753 006.5392 00.37814076 11348 ____________________________________________________________________ These 2-Line ...Continue Reading
  • This mailing list is a public mailing list - anyone may join or leave, at any time.
  • This mailing list is announce-only.

International Space Station (ISS) / Hubble Space Telescope (HST) / Chandra X-Ray Observatory Orbital Data via EMAIL

Privacy Policy:

Private list